When you browse on this site, cookies collect data to enhance your experience and personalize the content and advertising you see.
Visit our Privacy Policy to learn more. By continuing to use the site, you agree to this use of cookies and data.
  • In Schweiz
  • Länderverzeichnis
  • Für 7 Tage
  • Wassertemperatur
  • Satellitenkarten
  • Wetterkarte
  • Widgets
  • user-avatar
    Anmelden

    Stündliche Wetter Tovste

    Heute, 22 April, Montag

    Zeit Temperatur Niederschläge Wind Luftdruck Luftfeuchtigkeit
    00:00 +9°C° 0 mm 2 m/S 753 mmHg 49%
    01:00 +9°C° 0 mm 2 m/S 753 mmHg 50%
    02:00 +8°C° 0 mm 2 m/S 754 mmHg 52%
    03:00 +8°C° 0 mm 2 m/S 754 mmHg 53%
    04:00 +7°C° 0 mm 2 m/S 754 mmHg 55%
    05:00 +6°C° 0 mm 2 m/S 754 mmHg 57%
    06:00 +8°C° 0 mm 2 m/S 755 mmHg 53%
    07:00 +9°C° 0 mm 2 m/S 755 mmHg 49%
    08:00 +11°C° 0 mm 3 m/S 755 mmHg 46%
    09:00 +12°C° 0 mm 3 m/S 755 mmHg 41%
    10:00 +13°C° 0 mm 3 m/S 755 mmHg 36%
    11:00 +14°C° 0 mm 3 m/S 755 mmHg 30%
    12:00 +14°C° 0 mm 3 m/S 755 mmHg 31%
    13:00 +16°C° 0 mm 2 m/S 755 mmHg 31%
    14:00 +16°C° 0 mm 2 m/S 755 mmHg 31%
    15:00 +16°C° 0 mm 2 m/S 755 mmHg 32%
    16:00 +16°C° 0 mm 1 m/S 755 mmHg 33%
    17:00 +15°C° 0 mm 1 m/S 755 mmHg 34%
    18:00 +14°C° 0 mm 1 m/S 755 mmHg 37%
    19:00 +13°C° 0 mm 1 m/S 755 mmHg 39%
    20:00 +12°C° 0 mm 1 m/S 755 mmHg 42%
    21:00 +11°C° 0 mm 1 m/S 756 mmHg 44%
    22:00 +10°C° 0 mm 2 m/S 756 mmHg 46%
    23:00 +9°C° 0 mm 2 m/S 756 mmHg 47%

    Morgen, 23 April, Dienstag

    Zeit Temperatur Niederschläge Wind Luftdruck Luftfeuchtigkeit
    00:00 +9°C° 0 mm 2 m/S 756 mmHg 49%
    01:00 +8°C° 0 mm 2 m/S 756 mmHg 50%
    02:00 +8°C° 0 mm 2 m/S 756 mmHg 52%
    03:00 +8°C° 0 mm 2 m/S 757 mmHg 53%
    04:00 +7°C° 0 mm 2 m/S 757 mmHg 54%
    05:00 +7°C° 0 mm 2 m/S 757 mmHg 56%
    06:00 +9°C° 0 mm 2 m/S 757 mmHg 53%
    07:00 +12°C° 0 mm 2 m/S 757 mmHg 51%
    08:00 +12°C° 0 mm 3 m/S 757 mmHg 49%
    09:00 +14°C° 0 mm 3 m/S 757 mmHg 43%
    10:00 +16°C° 0 mm 2 m/S 757 mmHg 38%
    11:00 +18°C° 0 mm 2 m/S 757 mmHg 32%
    12:00 +17°C° 0 mm 2 m/S 757 mmHg 33%
    13:00 +17°C° 0 mm 2 m/S 757 mmHg 34%
    14:00 +18°C° 0 mm 1 m/S 757 mmHg 34%
    15:00 +18°C° 0 mm 1 m/S 757 mmHg 36%
    16:00 +18°C° 0 mm 1 m/S 757 mmHg 39%
    17:00 +18°C° 0 mm 1 m/S 756 mmHg 41%
    18:00 +16°C° 0 mm 1 m/S 757 mmHg 43%
    19:00 +14°C° 0 mm 1 m/S 757 mmHg 46%
    20:00 +13°C° 0 mm 1 m/S 757 mmHg 48%
    21:00 +11°C° 0 mm 0 m/S 757 mmHg 48%
    22:00 +11°C° 0 mm 0 m/S 757 mmHg 49%
    23:00 +11°C° 0 mm 0 m/S 757 mmHg 49%

    übermorgen, 24 April, Mittwoch

    Zeit Temperatur Niederschläge Wind Luftdruck Luftfeuchtigkeit
    00:00 +11°C° 0 mm 0 m/S 757 mmHg 50%
    01:00 +10°C° 0 mm 0 m/S 757 mmHg 51%
    02:00 +10°C° 0 mm 0 m/S 757 mmHg 52%
    03:00 +9°C° 0 mm 0 m/S 757 mmHg 54%
    04:00 +10°C° 0 mm 1 m/S 757 mmHg 56%
    05:00 +9°C° 0 mm 1 m/S 757 mmHg 57%
    06:00 +11°C° 0 mm 1 m/S 758 mmHg 54%
    07:00 +13°C° 0 mm 1 m/S 758 mmHg 50%
    08:00 +15°C° 0 mm 1 m/S 758 mmHg 47%
    09:00 +16°C° 0 mm 1 m/S 758 mmHg 43%
    10:00 +17°C° 0 mm 2 m/S 758 mmHg 39%
    11:00 +18°C° 0 mm 2 m/S 758 mmHg 35%
    12:00 +20°C° 0 mm 1 m/S 757 mmHg 34%
    13:00 +20°C° 0 mm 1 m/S 757 mmHg 34%
    14:00 +21°C° 0 mm 1 m/S 757 mmHg 33%
    15:00 +21°C° 0 mm 1 m/S 757 mmHg 34%
    16:00 +20°C° 0 mm 1 m/S 757 mmHg 36%
    17:00 +20°C° 0 mm 1 m/S 756 mmHg 37%
    18:00 +19°C° 0 mm 1 m/S 757 mmHg 41%
    19:00 +16°C° 0 mm 1 m/S 757 mmHg 45%
    20:00 +14°C° 0 mm 1 m/S 757 mmHg 49%
    21:00 +14°C° 0 mm 1 m/S 757 mmHg 50%
    22:00 +13°C° 0 mm 1 m/S 757 mmHg 52%
    23:00 +13°C° 0 mm 1 m/S 757 mmHg 53%

    25 April, Donnerstag

    Zeit Temperatur Niederschläge Wind Luftdruck Luftfeuchtigkeit
    00:00 +13°C° 0 mm 1 m/S 757 mmHg 55%
    01:00 +12°C° 0 mm 1 m/S 757 mmHg 56%
    02:00 +12°C° 0 mm 1 m/S 757 mmHg 57%
    03:00 +11°C° 0 mm 1 m/S 757 mmHg 59%
    04:00 +11°C° 0 mm 1 m/S 757 mmHg 61%
    05:00 +11°C° 0 mm 1 m/S 757 mmHg 63%
    06:00 +13°C° 0 mm 2 m/S 757 mmHg 59%
    07:00 +14°C° 0 mm 2 m/S 757 mmHg 55%
    08:00 +16°C° 0 mm 2 m/S 757 mmHg 51%
    09:00 +18°C° 0 mm 2 m/S 757 mmHg 48%
    10:00 +19°C° 0 mm 2 m/S 757 mmHg 44%
    11:00 +21°C° 0 mm 1 m/S 757 mmHg 41%
    12:00 +22°C° 0 mm 1 m/S 757 mmHg 40%
    13:00 +23°C° 0 mm 1 m/S 757 mmHg 39%
    14:00 +21°C° 0 mm 0 m/S 756 mmHg 38%
    15:00 +21°C° 0 mm 0 m/S 756 mmHg 39%
    16:00 +21°C° 0 mm 0 m/S 756 mmHg 39%
    17:00 +21°C° 0 mm 0 m/S 755 mmHg 40%
    18:00 +19°C° 0 mm 0 m/S 755 mmHg 45%
    19:00 +17°C° 0 mm 0 m/S 755 mmHg 49%
    20:00 +16°C° 0 mm 0 m/S 755 mmHg 53%
    21:00 +15°C° 0 mm 0 m/S 755 mmHg 55%
    22:00 +15°C° 0 mm 0 m/S 755 mmHg 56%
    23:00 +14°C° 0 mm 0 m/S 754 mmHg 58%

    26 April, Freitag

    Zeit Temperatur Niederschläge Wind Luftdruck Luftfeuchtigkeit
    00:00 +14°C° 0 mm 0 m/S 754 mmHg 60%
    01:00 +13°C° 0 mm 0 m/S 754 mmHg 61%
    02:00 +13°C° 0 mm 0 m/S 754 mmHg 63%
    03:00 +13°C° 0 mm 0 m/S 754 mmHg 64%
    04:00 +12°C° 0 mm 0 m/S 754 mmHg 66%
    05:00 +12°C° 0 mm 0 m/S 754 mmHg 67%
    06:00 +15°C° 0 mm 1 m/S 754 mmHg 62%
    07:00 +18°C° 0 mm 1 m/S 754 mmHg 58%
    08:00 +20°C° 0 mm 1 m/S 754 mmHg 53%
    09:00 +20°C° 0 mm 2 m/S 753 mmHg 49%
    10:00 +21°C° 0 mm 2 m/S 753 mmHg 45%
    11:00 +24°C° 0 mm 2 m/S 753 mmHg 40%
    12:00 +23°C° 0 mm 2 m/S 753 mmHg 42%
    13:00 +23°C° 0 mm 2 m/S 752 mmHg 44%
    14:00 +23°C° 0 mm 2 m/S 752 mmHg 46%
    15:00 +23°C° 0 mm 2 m/S 751 mmHg 48%
    16:00 +23°C° 0 mm 2 m/S 751 mmHg 49%
    17:00 +21°C° 0 mm 2 m/S 751 mmHg 51%
    18:00 +20°C° 0 mm 2 m/S 751 mmHg 54%
    19:00 +18°C° 0 mm 2 m/S 750 mmHg 57%
    20:00 +18°C° 0 mm 1 m/S 750 mmHg 60%
    21:00 +16°C° 0 mm 1 m/S 750 mmHg 61%
    22:00 +16°C° 0 mm 1 m/S 750 mmHg 62%
    23:00 +15°C° 0 mm 1 m/S 750 mmHg 63%

    27 April, Samstag

    Zeit Temperatur Niederschläge Wind Luftdruck Luftfeuchtigkeit
    00:00 +15°C° 0 mm 1 m/S 750 mmHg 64%
    01:00 +14°C° 0 mm 0 m/S 750 mmHg 65%
    02:00 +13°C° 0 mm 0 m/S 750 mmHg 66%
    03:00 +13°C° 0 mm 0 m/S 750 mmHg 66%
    04:00 +14°C° 0 mm 0 m/S 750 mmHg 66%
    05:00 +14°C° 0 mm 0 m/S 750 mmHg 66%
    06:00 +15°C° 0 mm 0 m/S 750 mmHg 64%
    07:00 +16°C° 0 mm 0 m/S 750 mmHg 62%
    08:00 +17°C° 0 mm 0 m/S 750 mmHg 59%
    09:00 +20°C° 0 mm 1 m/S 750 mmHg 54%
    10:00 +22°C° 0 mm 1 m/S 750 mmHg 49%
    11:00 +23°C° 0 mm 1 m/S 750 mmHg 44%
    12:00 +23°C° 0 mm 1 m/S 750 mmHg 44%
    13:00 +23°C° 0 mm 1 m/S 750 mmHg 43%
    14:00 +21°C° 0 mm 0 m/S 750 mmHg 42%
    15:00 +20°C° 0 mm 0 m/S 750 mmHg 45%
    16:00 +20°C° 0 mm 0 m/S 750 mmHg 48%
    17:00 +20°C° 0 mm 0 m/S 750 mmHg 50%
    18:00 +20°C° 0 mm 1 m/S 750 mmHg 53%
    19:00 +19°C° 0 mm 1 m/S 750 mmHg 56%
    20:00 +18°C° 0 mm 1 m/S 750 mmHg 58%
    21:00 +16°C° 0 mm 1 m/S 750 mmHg 60%
    22:00 +16°C° 0 mm 1 m/S 750 mmHg 62%
    23:00 +15°C° 0 mm 1 m/S 750 mmHg 64%
    Mehr zeigen